Back to catalog

DELTA 1 DEB

AliveSSO
NORAD 8978·DEBRIS·🇺🇸 United States

Launched Jan 22, 1975 from Vandenberg Space Force Base

Loading…

Next Passes (next 24 hours)

TLE

FreshSource: Space-Track

Epoch: Sep 14, 2026, 04:52 UTC

1 08978U 75004BL  26257.20290966  .00001381  00000-0  15474-3 0  9991
2 08978  97.7840 327.0048 0024514 283.9039  75.9451 14.88252475680565

Track DELTA 1 DEB in real time with AllMySat

Download on the App Store